{"data":{"norad_id":40874,"intl_designator":"2015-039A","name":"INTELSAT 34 (IS-34)","alt_names":[],"object_type":"PAYLOAD","status":"ACTIVE","operator":null,"country":"ITSO","launch_date":"2015-08-20","launch_site_code":"FRGUI","launch_vehicle":null,"mission":null,"orbit_class":"UNKNOWN","rcs_meters":16.5703,"size_class":null,"mass_kg":null,"dimensions":null,"purposes":["comms"],"wikipedia_slug":null,"has_3d_model":false,"image_url":null,"decayed_at":null,"tle_current":{"epoch":"2026-09-19T21:50:23.307072Z","epoch_age_seconds":65436,"freshness":"FRESH","line1":"1 40874U 15039A   26262.90999198 -.00000290  00000+0  00000+0 0  9993","line2":"2 40874   0.0049 305.8992 0000366  96.6647 228.3677  1.00272882 40589","mean_motion":1.00272882,"eccentricity":3.66e-5,"inclination_deg":0.0049,"raan_deg":305.8992,"arg_perigee_deg":96.6647,"mean_anomaly_deg":228.3677,"bstar":0,"rev_number":4058,"period_min":1436.0811929191,"perigee_km":35784.744217138,"apogee_km":35787.830653006,"semimajor_km":42164.424435072,"source":"CELESTRAK","updated_at":"2026-09-20T09:00:35.522212Z"}}}